Weather in Bar

Ukraine / Vinnytsia Region     49°04′41″N   27°40′53″E
temp.,
°C
wind,
m/s
gust,
m/s
humid.,
%
clouds,
%
prec.,
mm/h
press.,
hPa
HPBL,
m
27 june, mon
mon2700:00+16ne3489100 0.2 102069
03:00+16ne3590100 0.2 101982
06:00+16ene379329 0.0 1020132
09:00+22ene46675 0.0 1020533
12:00+25e565499 0.4 10201473
15:00+27ene364590 1.0 10191896
18:00+23sw2257100 0.0 101923
21:00+22n3572100 0.0 101991
28 june, tue
tue2800:00+21nne356998 0.0 101992
03:00+19e237382 0.0 101933
06:00+18ene3574100 0.0 102083
09:00+24ene47575 0.0 1020539
12:00+28ene57440 0.0 10192025
15:00+30ene56355 0.0 10182487
18:00+31ene353531 0.0 10172471
21:00+25ne376348 0.1 1018164
29 june, wed
wed2900:00+23ne366792 0.0 1019120
03:00+19ne228525 0.8 101820
06:00+19ne33885 0.2 101847
09:00+24ene347387 1.1 1018314
12:00+30ene334479 0.0 10171805
15:00+32ene433685 0.0 10162720
18:00+31ese2337100 0.0 10142096
21:00+24nw3468100 1.9 101558
30 june, thu
thu3000:00+18e71085100 10.4 1016131
03:00+18e349465 10.6 101669
06:00+18ne22895 0.1 101629
09:00+23ene457677 0.1 1016379
12:00+27ene44555 0.0 1016963
15:00+29ne444715 0.0 10161583
18:00+28ne55474 0.0 10151558
21:00+22e48690 0.0 1016164
1 july, fri
fri100:00+19ese411740 0.0 1019274
03:00+17ese39770 0.0 1019156
06:00+16e49770 0.0 1020171
09:00+22ese67560 0.0 1020585
12:00+27ese554110 0.0 10191571
15:00+29ese4432100 0.0 10182069
18:00+29e553615 0.0 10171781
21:00+22e49521 0.0 1019130